Regional Weather Roundup
Issued by NWS Mobile, AL

Home | Current Version | Previous Version | Text Only | Print | Product List | Glossary On
Versions: 1 2 3 4 5 6 7 8 9 10 11 12 13 14 15 16 17 18 19 20 21 22 23 24 25 26 27 28 29 30 31 32 33 34 35 36 37 38 39 40 41 42 43 44 45 46 47 48 49 50
000
ASUS44 KMOB 022312
RWRMOB
REGIONAL WEATHER ROUNDUP
NATIONAL WEATHER SERVICE MOBILE AL
500 PM CST FRI DEC 02 2016

NOTE: "FAIR" INDICATES FEW OR NO CLOUDS BELOW 12,000 FEET WITH NO
      SIGNIFICANT WEATHER AND/OR OBSTRUCTIONS TO VISIBILITY.

  * THESE STATIONS ARE PART OF THE UNIVERSITY OF SOUTH ALABAMA
    MESONET AND ARE NOT UNDER NWS OR FAA QUALITY CONTROL.

ALZ061>064-030000-
COASTAL ALABAMA

CITY           SKY/WX    TMP DP  RH WIND       PRES   REMARKS
MOBILE REG APT CLOUDY    59  36  42 N5        30.21R
BROOKLEY FIELD CLOUDY    64  36  35 NE8       30.22R
USA CAMPUS*      N/A     55  43  62 CALM      30.21R
DOG RIVER*       N/A     61  39  44 CALM      31.02R


CITY           SKY/WX    TMP DP  RH WIND       PRES   REMARKS
GULF SHORES    CLOUDY    59  37  43 N3        30.19S

$$

ALZ051>060-030000-
INTERIOR SOUTHWEST AND SOUTH CENTRAL ALABAMA

CITY           SKY/WX    TMP DP  RH WIND       PRES   REMARKS
GREENVILLE     PTCLDY    57  33  40 N3        30.22R
EVERGREEN      PTCLDY    57  32  38 N3        30.23R
ATMORE*          N/A     57  34  41 N5        30.23R
ANDALUSIA/OPP  PTCLDY    62  31  31 NE5       30.21R
ANDALUSIA*       N/A     57  32  38 NE3       30.20R
FLORALA APT    CLOUDY    53  38  56 CALM      30.23R
FLORALA*         N/A     54  37  54 CALM      30.99R

$$

FLZ001>006-030000-
WESTERN FLORIDA PANHANDLE

CITY           SKY/WX    TMP DP  RH WIND       PRES   REMARKS
PENSACOLA      PTCLDY    61  34  36 N5        30.20R
NAS PENSACOLA  CLOUDY    59  37  44 N5        30.19R
MILTON         MOCLDY    57  35  43 CALM      30.20R
WHTNG S FIELD  CLOUDY    61  35  37 N5        30.20R


CITY           SKY/WX    TMP DP  RH WIND       PRES   REMARKS
JAY*             N/A     59  32  36 NE2       30.22R
DUKE FIELD     MOCLDY    58  33  39 NE5       30.19R
CRESTVIEW      PTCLDY    55  38  52 N5        30.21R
VALPARAISO     MOCLDY    60  33  35 N7        30.19R
DESTIN         CLOUDY    64  34  32 N5        30.19R

$$

MSZ076-079-030000-
INTERIOR SOUTHEAST MISSISSIPPI

CITY           SKY/WX    TMP DP  RH WIND       PRES   REMARKS
LEAKESVILLE*   NOT AVBL
AGRICOLA*      NOT AVBL

$$

MARINE OBSERVATIONS

STATION/POSITION TIME  TEMP    WIND        PRES    WAVE
                       AIR SEA DIR/SP/G            HT/PER
                 (UTC) (F)     (DEG/KT/KT) (MB)    (FT/S)
PASCAGOULA       2118   65      70/  5/  8 1021.5
PETIT BOIS ISLND 2118   63      70/ 12/ 14 1022.4
GRAND BAY        2145   64      70/  8     1023.0R
CEDAR POINT      2100   63      50/  9     1021.3
E DAUPHIN ISLAND 2200   63      40/ 10/ 11 1022.0R
USCG MOBILE BAY  2118   64 63   40/  9/ 10 1022.7
STATE DOCKS      2112   65 65              1021.9
MEAHER PARK      2100   64      40/  6     1021.7
WEEKS BAY        2145   63                   N/A
FORT MORGAN      2118   63      60/ 11/ 12 1021.2
12 S ORANGE BCH  2250   65 72   60/ 14/ 17 1022.2R   3/ 6
PENSACOLA BAY    2112   65 65   40/  6/  9 1021.6
64 S DAUPHIN ISL 2300   68 76   70/ 16/ 21 1021.5
67 S FORT MORGAN 2230   65      60/ 19     1021.3R

$$

SELECTED LOCATIONS ACROSS THE REGION

CITY           SKY/WX    TMP DP  RH WIND       PRES   REMARKS
NEW ORLEANS    CLOUDY    61  45  55 E13       30.18R
GULFPORT       CLOUDY    62  39  42 E6        30.19F
PASCAGOULA AP  CLOUDY    58  37  45 CALM      30.21R
PASCAGOULA*    NOT AVBL
HATTIESBURG    CLOUDY    60  33  36 E7        30.21R
LAUREL         CLOUDY    57  30  35 NE3       30.23F
MERIDIAN       CLOUDY    57  34  41 CALM      30.24R
JACKSON        CLOUDY    57  35  43 E5        30.21S
MONTGOMERY     PTCLDY    58  29  33 N5        30.24R
TROY           PTCLDY    54  37  52 N5        30.23R
ASHFORD*         N/A     57  32  38 NE3       30.20R
DOTHAN         CLOUDY    55  41  59 N3        30.24R
PANAMA CITY    PTCLDY    59  32  36 N6        30.17R

$$




USA.gov is the U.S. government's official web portal to all federal, state and local government web resources and services.